Find Starlink 6085

NORAD ID: 57115 Int'l Des: 2023-090 Owner: SPXS Country: US Constellation: starlink operational
LEOCIRCULAR

当前视图

正在加载3D地球...

About Starlink 6085

Starlink 6085 (NORAD 57115) is a starlink constellation satellite (v1.5) launched Jun 23, 2023 by SPXS of US. It operates in LEO, CIRCULAR orbit with a mass of 305.00 kg.

关于 Starlink 6085

正在加载描述...

即将过境

Passes for default location (London). Set your location on the main map for personalized predictions.

高度历史

Loading altitude history...

两行轨道根数

1 57115U 23090Q 26171.37597580 .00027356 00000-0 13428-2 0 9997
2 57115 42.9984 54.3181 0018627 150.7728 209.4165 15.17443760166124
Epoch: Jun 20, 2026 • Age: 44 hours

当前状态

高度 518.7 km
速度 7.61 km/s
星下点 32.90°N, 94.94°E
发射日期 Jun 23, 2023
运行时间 2.9 years
类型 internet

技术详情

分类 Payload
质量 305.00 kg
干质量 290.00 kg
总质量 305.00 kg
长度 0.20 m
直径 2.80 m
跨度 9.00 m
形状 Box + pan
制造商 SPXS
平台类型 Starlink
阶段状态 In Orbit
所有者/国家 SPXS/US

Most Searched